RH
7 9 12 13 12 12 12 11 8 15 18 21 24 18 22 28 31 8 8 11 10 10 10 10 11 12 19 22 25 24 37 44 33 28 25 18 18 14 10 10 9 20 43 54 56
7 9 12 14 15 15 16 16 12 15 16 20 16 21 24 24 25 8 10 9 9 10 8 11 10 11 15 18 24 27 38 33 26 22 21 19 17 11 10 10 10 12 40 35 46
7 9 14 16 16 16 18 17 11 12 16 19 16 24 24 23 14 11 11 9 9 10 11 12 10 10 11 18 20 24 28 23 20 19 18 17 11 10 11 13 10 10 10 41 48
7 8 11 16 16 16 16 19 15 12 14 15 19 23 10 10 14 12 11 10 8 10 11 10 11 13 13 14 13 13 16 17 13 11 10 11 9 13 12 12 16 24 25 15 33
7 8 10 15 16 16 17 17 20 18 17 20 14 18 13 11 12 11 11 8 7 8 10 11 12 17 21 18 16 14 14 15 14 10 10 9 10 13 15 21 21 27 41 37 32
8 8 8 12 15 15 16 16 16 17 17 18 20 22 10 14 12 12 9 10 10 9 10 11 11 15 18 19 19 16 18 18 13 11 8 11 10 10 14 30 34 31 53 59 50
8 8 7 8 11 14 14 14 13 17 18 19 20 23 12 13 12 10 9 9 9 10 9 9 10 16 17 22 18 18 21 14 13 10 10 10 18 44 41 45 53 54 50 50 57
8 8 8 8 12 14 13 17 20 19 16 15 20 12 12 13 12 10 11 8 9 8 8 9 12 16 18 16 16 17 17 18 14 13 10 10 32 54 53 55 62 66 64 59 50
8 8 8 8 16 15 14 14 13 14 12 13 17 13 13 13 13 11 12 11 8 7 8 12 15 12 12 18 22 22 22 20 16 15 16 14 30 56 59 61 66 74 75 73 66
8 8 9 9 14 27 30 13 14 15 15 12 12 12 13 13 15 13 10 11 10 6 8 11 14 18 22 23 22 21 22 19 19 19 21 29 70 56 60 63 68 73 82 81 82
9 9 11 17 8 17 24 26 20 12 12 13 13 14 14 13 15 16 14 13 12 15 23 15 22 29 28 23 23 24 25 27 24 19 22 40 76 70 61 65 70 74 81 84 83
10 10 18 22 24 22 26 29 42 35 17 13 14 15 15 15 18 19 16 16 16 23 22 24 26 24 20 21 23 24 30 32 25 21 21 55 78 60 59 62 69 77 79 80 81
9 11 18 25 25 32 28 30 38 40 26 13 13 16 15 15 22 21 19 18 21 25 24 28 23 18 21 28 32 30 28 31 31 25 24 35 80 64 53 61 66 73 83 78 82
10 14 16 24 24 32 26 25 33 40 32 18 14 17 16 16 22 21 20 20 23 28 25 28 21 20 24 29 28 32 24 45 47 39 42 24 52 71 62 66 66 75 85 81 84
18 17 22 29 27 17 17 24 26 54 49 21 16 18 19 19 22 25 20 23 31 28 23 29 27 26 27 28 24 33 43 56 56 48 42 36 74 76 63 79 78 77 87 85 86
22 25 29 31 40 35 24 20 37 55 43 26 20 24 24 22 24 25 26 23 23 30 26 27 23 25 25 25 24 23 41 56 63 48 61 36 63 93 93 94 80 79 90 97 90
19 24 26 30 36 45 42 54 47 67 26 29 28 28 28 31 29 30 31 36 40 47 36 36 32 25 25 33 28 31 58 75 56 64 74 74 84 96 89 89 93 91 95 91 74
29 24 32 32 34 33 40 39 56 35 33 25 26 31 37 34 34 33 35 43 35 35 57 59 39 34 25 33 50 39 61 93 92 86 93 78 95 96 95 95 91 76 78 80 58
35 26 27 32 26 25 20 75 54 34 27 33 35 43 44 36 40 41 42 43 40 40 38 51 44 29 22 23 38 64 82 75 93 64 69 93 95 60 67 74 64 60 59 62 60
33 34 29 32 20 20 47 51 34 29 28 33 42 39 45 40 46 44 48 40 38 31 31 32 60 30 25 34 36 52 47 81 81 94 93 96 95 94 82 90 74 55 52 50 50
32 29 28 23 19 20 76 41 34 30 30 38 37 41 39 42 45 46 47 38 32 26 30 38 52 34 34 75 71 71 73 79 92 74 94 95 96 67 76 73 91 56 53 54 54
25 44 30 21 36 47 66 33 29 33 28 33 32 37 39 41 45 44 42 30 22 28 33 34 44 48 37 56 43 52 68 70 83 72 67 82 94 60 66 58 57 67 58 55 58
28 30 28 19 77 84 36 37 30 34 37 35 43 36 37 40 41 41 42 22 22 25 32 35 48 68 53 44 58 81 51 55 62 80 98 83 84 42 51 64 57 65 57 53 59
32 83 32 28 36 46 47 45 40 32 34 35 38 38 44 46 39 41 45 39 38 22 22 27 47 65 89 86 79 95 66 52 80 90 94 89 81 76 67 81 66 54 49 54 52
36 55 49 76 62 47 42 40 42 46 36 35 45 44 46 51 50 47 42 48 40 31 25 28 34 68 75 68 63 97 73 68 85 90 85 77 99 79 78 78 58 48 46 50 49
46 42 42 52 42 43 51 44 42 38 36 43 43 41 41 45 45 52 47 52 51 35 43 34 36 58 71 73 94 70 78 70 70 91 83 89 85 64 51 51 49 43 44 47 45
50 48 36 53 47 56 48 43 40 39 39 36 37 38 43 41 38 41 43 42 44 53 55 38 40 43 47 87 92 70 76 95 82 82 80 80 68 57 65 51 50 42 43 41 44
Wind_Speed
14 14 13 13 12 11 11 9 6 7 10 13 9 7 5 6 8 20 18 25 19 14 12 9 2 5 4 0 2 3 4 2 3 2 5 18 7 25 16 12 11 20 16 5 8
13 13 12 13 13 12 12 13 8 5 9 10 4 6 8 6 5 23 22 26 10 13 11 11 10 7 1 1 1 4 3 5 5 4 6 13 8 12 8 18 12 25 15 4 3
13 13 11 11 10 10 11 12 10 6 7 6 3 6 10 5 3 24 26 28 19 12 10 8 7 7 3 2 1 1 4 3 8 12 10 6 8 10 15 11 26 28 25 8 10
11 11 10 8 8 10 10 12 13 9 8 4 4 7 9 12 4 27 27 32 21 12 6 7 8 5 3 5 3 4 5 2 7 13 6 3 5 17 23 16 26 32 26 18 20
11 9 8 6 6 8 9 9 10 12 10 8 10 12 10 21 16 23 31 30 16 10 6 9 9 7 4 5 11 5 2 9 11 7 8 6 6 14 27 24 26 29 36 35 28
11 8 8 7 5 4 4 4 5 6 6 7 8 10 21 19 20 28 32 21 17 12 5 7 7 8 5 3 0 7 8 9 3 14 9 6 10 7 25 20 30 30 35 34 34
11 9 8 6 4 4 6 7 6 3 4 7 6 5 27 20 23 30 24 21 18 11 8 8 6 4 10 7 7 12 5 4 10 21 7 12 11 14 22 27 34 35 35 34 37
11 9 5 6 5 6 10 10 10 9 8 8 3 8 7 23 24 31 25 24 20 13 6 5 7 5 10 12 9 6 5 4 5 16 10 11 3 14 25 30 30 32 39 40 38
12 9 7 5 9 14 13 10 6 6 12 10 9 7 7 21 33 29 28 30 16 7 19 10 8 14 21 6 5 7 4 4 7 10 6 9 2 18 27 30 30 31 34 38 44
11 8 7 6 9 7 7 18 16 7 4 7 21 5 17 17 32 29 30 27 26 19 10 25 15 7 15 11 5 8 6 4 1 8 9 10 6 11 23 28 27 30 33 38 39
11 8 6 7 4 7 0 8 3 8 21 20 13 11 9 16 28 33 30 21 26 23 6 14 15 10 10 12 11 10 7 6 8 7 12 9 10 11 22 31 31 32 35 36 38
11 8 6 7 6 3 3 8 9 4 4 7 18 18 13 8 25 36 29 15 21 12 7 7 12 6 10 17 15 12 5 5 9 17 12 8 9 8 20 23 26 31 35 37 38
12 9 4 4 6 5 9 9 10 6 3 2 4 23 21 11 19 33 27 10 10 9 12 10 3 11 12 18 20 12 8 8 13 16 10 6 3 11 15 25 30 33 32 35 38
14 10 5 3 4 5 4 5 9 5 5 9 10 12 26 3 9 32 23 11 11 7 5 5 9 13 16 15 13 15 9 18 20 10 4 3 3 11 17 17 24 32 35 36 38
15 13 10 9 4 4 4 6 10 2 5 9 6 9 18 14 8 24 26 16 7 10 11 8 9 11 15 14 12 16 17 21 20 17 10 5 5 8 9 16 19 27 33 36 37
12 12 11 8 12 8 6 8 6 6 2 6 5 6 8 13 11 12 22 16 15 4 8 4 10 8 11 17 16 21 16 26 16 10 8 10 6 7 7 14 15 24 31 34 38
12 12 13 13 13 6 2 4 5 7 5 8 5 5 4 8 6 8 12 21 9 6 12 6 5 11 16 19 20 21 17 5 4 3 2 11 13 4 11 12 18 22 27 30 36
6 13 12 13 10 7 2 5 9 3 3 4 5 4 5 7 5 7 5 5 12 3 2 6 7 13 19 10 7 14 3 4 7 5 4 9 6 4 10 19 20 21 23 29 33
2 9 12 13 13 6 1 7 4 3 3 6 3 5 6 7 5 6 7 5 6 7 4 7 4 7 13 9 4 11 9 15 5 10 5 4 5 8 16 17 24 25 27 29 32
5 3 19 12 13 5 7 5 3 5 3 3 4 5 5 6 7 5 5 4 2 5 2 2 4 6 10 8 6 5 11 6 5 6 4 4 4 8 19 15 16 22 27 29 29
3 2 20 8 8 15 4 4 3 9 5 4 2 3 4 4 4 2 5 0 2 5 2 0 2 7 4 6 8 7 7 5 2 6 3 2 4 7 11 14 13 21 25 27 30
5 4 19 11 9 6 3 3 4 6 8 6 4 3 2 3 4 1 1 1 5 4 4 2 2 4 3 3 8 7 5 5 3 7 4 2 2 5 9 17 18 20 25 28 30
6 7 24 6 4 3 6 5 6 4 6 3 5 5 4 3 2 1 2 4 6 8 4 3 3 4 7 4 6 5 11 7 4 3 4 2 4 10 14 17 23 20 26 30 30
4 3 12 20 17 9 5 4 3 6 8 7 4 3 4 3 3 1 1 1 7 3 9 2 2 5 4 4 4 3 9 11 4 3 2 2 6 8 10 9 23 27 29 30 30
5 4 3 2 7 11 5 2 2 3 3 8 3 2 2 3 4 1 2 4 4 2 6 2 3 4 4 3 3 3 3 6 5 4 4 5 3 8 9 11 20 26 29 31 32
5 5 8 5 4 9 6 2 1 1 2 1 2 2 0 2 4 4 2 2 5 2 4 3 4 4 7 7 4 2 0 2 3 1 2 4 6 7 19 18 21 26 30 32 33
14 12 5 4 3 4 1 2 2 5 2 3 3 0 2 4 10 17 17 17 10 1 2 2 3 2 3 3 3 4 3 2 3 3 5 1 8 8 10 20 21 26 27 32 30
Wind_Direction
18 18 24 28 31 40 46 57 102 144 137 133 103 52 40 17 22 14 28 6 345 336 343 352 342 332 296 287 214 178 70 233 272 319 266 308 358 323 334 303 44 29 24 91 210
21 23 27 29 36 46 47 49 65 114 153 149 91 32 10 358 20 19 10 7 337 324 336 355 1 7 95 299 198 109 117 226 209 247 277 314 307 322 348 353 33 16 25 22 239
22 26 30 35 49 57 65 58 58 98 140 145 47 19 10 349 51 3 357 360 352 331 337 341 342 350 346 325 299 84 190 225 275 287 316 308 359 351 1 23 357 1 3 321 231
22 25 31 40 60 67 72 68 65 82 115 109 16 8 45 47 48 357 349 347 344 330 320 359 4 11 3 342 341 346 242 84 322 325 355 348 4 74 38 7 14 38 55 55 49
22 28 38 55 80 86 77 74 78 86 96 83 63 53 35 47 9 356 346 346 346 338 6 18 28 6 355 319 332 188 22 347 325 345 35 360 11 93 29 21 24 37 41 44 42
18 24 33 45 68 76 63 72 87 87 85 64 45 34 41 54 8 357 350 8 9 7 37 19 346 336 300 296 312 317 324 324 12 356 30 12 29 66 1 31 32 28 33 35 31
19 23 37 42 63 79 87 84 98 125 70 55 41 64 44 23 6 2 8 14 8 352 360 9 349 360 326 326 335 302 341 8 13 352 21 351 46 12 26 40 38 26 16 17 24
18 22 50 42 65 95 110 89 96 102 83 37 58 67 77 24 6 12 18 21 39 44 1 9 29 30 12 316 341 11 55 28 329 15 344 3 72 12 22 42 36 27 19 12 9
20 29 53 47 117 105 93 85 123 94 63 50 67 89 36 11 14 10 21 16 19 31 58 63 75 60 16 12 3 12 333 334 319 29 352 44 62 19 26 37 32 24 20 13 7
26 36 40 63 160 142 106 91 89 79 116 6 39 70 20 25 26 13 22 22 26 43 53 43 39 45 31 27 350 312 315 316 0 329 352 81 63 29 31 40 32 22 19 14 8
26 35 41 47 124 198 192 161 83 65 68 73 67 56 6 35 25 24 14 26 29 36 49 48 50 29 43 28 18 6 342 343 329 336 341 92 71 40 31 34 26 20 17 12 7
25 41 64 66 79 81 83 132 107 124 86 82 66 36 16 35 28 23 19 36 30 40 18 43 49 67 48 30 23 12 350 324 303 339 329 122 88 41 45 40 32 20 15 10 2
30 35 55 66 41 41 61 115 132 142 120 51 37 35 8 65 42 17 20 21 34 43 61 84 350 27 39 24 7 339 280 320 306 313 278 144 94 26 19 31 24 21 12 11 6
36 45 41 359 6 37 58 147 156 157 77 339 3 21 24 107 56 24 20 15 28 27 30 60 14 22 30 16 1 313 333 321 297 296 243 51 280 24 2 21 22 13 10 5 360
43 50 60 55 45 45 62 132 158 154 55 330 26 30 43 78 358 19 27 48 53 52 44 320 16 29 14 350 338 308 318 293 270 259 249 236 91 340 6 13 9 8 4 1 358
48 47 44 38 39 54 97 131 141 46 55 343 32 20 31 23 39 47 41 43 35 17 40 299 71 32 5 339 321 308 315 300 267 249 241 216 116 25 17 13 2 5 2 356 355
45 30 25 22 12 21 128 148 41 86 343 340 335 351 56 357 30 22 44 47 38 6 5 342 74 7 8 337 325 343 345 319 329 133 337 74 70 64 26 17 13 4 360 357 2
10 19 25 16 9 2 139 66 69 5 360 338 338 64 58 0 3 30 34 50 32 49 339 15 335 10 332 328 270 315 310 302 321 358 84 42 68 58 40 23 13 5 359 4 6
342 14 20 16 7 14 100 52 151 9 310 332 337 35 355 357 9 56 51 38 29 10 31 2 299 308 342 329 359 319 336 304 247 259 63 34 48 68 22 23 13 6 5 7 4
328 328 15 1 11 29 70 109 82 4 351 54 55 31 359 331 11 30 30 347 18 2 27 297 296 296 324 338 340 317 313 340 352 351 67 30 60 5 350 4 358 359 2 359 1
344 21 1 3 21 57 93 88 120 36 50 56 40 49 4 357 331 44 6 54 331 309 9 194 170 305 12 10 350 349 355 334 241 20 32 66 52 334 337 343 335 344 349 346 344
42 47 4 26 49 46 65 85 105 14 43 48 77 78 347 348 11 79 87 76 359 325 353 241 204 307 227 225 32 12 344 331 60 356 11 76 232 332 338 342 335 330 342 350 349
75 37 29 57 92 15 71 57 75 35 23 48 29 42 19 7 299 60 133 197 16 24 18 333 5 342 340 330 360 20 4 18 88 77 340 62 285 340 330 330 336 331 343 354 354
87 40 41 59 87 103 103 40 91 60 48 68 33 47 6 17 23 310 308 239 323 350 3 89 162 168 213 226 269 345 30 30 85 66 235 190 282 301 316 313 327 342 353 354 358
67 73 65 351 30 85 91 82 62 18 77 42 63 58 291 302 322 269 309 323 304 2 10 52 250 189 175 192 36 237 42 50 73 199 113 264 234 275 284 293 324 342 350 352 358
95 115 92 85 85 67 27 68 89 354 41 73 110 294 240 256 208 272 242 224 256 333 15 9 281 189 204 168 232 173 121 66 41 122 274 230 275 241 323 331 333 346 345 350 356
97 112 120 27 69 82 225 157 192 159 40 150 178 200 276 250 266 266 259 249 244 269 308 261 275 318 283 153 178 316 232 216 228 198 175 181 239 294 304 322 330 339 343 348 358